Tracking 18980 objects as of 22-Feb-2018
HD Live streaming from Space Station
objects crossing your sky now

COSMOS 1782

Track COSMOS 1782 now!
10-day predictions
COSMOS 1782 is classified as:


NORAD ID: 16986
Int'l Code: 1986-074A
Perigee: 545.8 km
Apogee: 560.5 km
Inclination: 82.5 °
Period: 95.6 minutes
Semi major axis: 6924 km
RCS: 9.471 m2 (large)
Launch date: September 30, 1986
Source: Commonwealth of Independent States (former USSR) (CIS)
Launch site: PLESETSK MISSILE AND SPACE COMPLEX (PKMTR)
aabbcc
Your satellite tracking list
Your tracking list is empty




NASA's NSSDC Master Catalog

Two Line Element Set (TLE):
1 16986U 86074A   18052.89221280 -.00000063 +00000-0 -61847-5 0  9995
2 16986 082.5042 238.2663 0010604 197.0927 162.9945 15.06791963687272
Source of the keplerian elements: AFSPC